Location: Cheching
(60.0667°N, 164.2167°W)
Time: 12:37:43
(UTC+00:00)

UNISAT 6 - Visible Passes

Search period start: 16 January 2021 00:00
Search period end: 26 January 2021 00:00
Orbit: 606 x 689 km, 97.7° (Epoch: 15 January)

Date Brightness Start Highest point End Pass type
(mag) Time Alt. Az. Time Alt. Az. Time Alt. Az.
16 Jan ? 14:48:53 10° NE 14:49:32 10° NE 14:50:11 10° NNE visible
16 Jan ? 16:21:15 10° ESE 16:25:07 34° ENE 16:29:02 10° N visible
16 Jan ? 17:57:36 10° S 18:01:44 48° W 18:05:57 10° NNW visible
17 Jan ? 15:12:42 10° ENE 15:14:55 14° NE 15:17:09 10° NNE visible
17 Jan ? 16:46:37 10° SE 16:50:45 51° ENE 16:54:59 10° N visible
17 Jan ? 18:23:54 10° SSW 18:27:41 31° W 18:31:34 10° NNW visible
18 Jan ? 15:37:21 10° E 15:40:22 19° NE 15:43:26 10° N visible
18 Jan ? 17:12:13 10° SSE 17:16:29 78° ENE 17:20:51 10° NNW visible
19 Jan ? 16:02:18 10° ESE 16:05:54 26° NE 16:09:32 10° N visible
19 Jan ? 17:38:02 10° S 17:42:18 67° WSW 17:46:40 10° NNW visible
20 Jan ? 14:54:29 10° ENE 14:55:51 11° NE 14:57:14 10° NNE visible
20 Jan ? 16:27:31 10° SE 16:31:30 38° ENE 16:35:32 10° N visible
20 Jan ? 18:04:07 10° S 18:08:12 43° W 18:12:23 10° NNW visible
21 Jan ? 15:18:44 10° E 15:21:15 15° NE 15:23:48 10° N visible
21 Jan ? 16:52:57 10° SE 16:57:09 57° ENE 17:01:28 10° N visible
21 Jan ? 18:30:29 10° SSW 18:34:11 28° W 18:37:58 10° NNW visible
22 Jan ? 15:43:30 10° E 15:46:44 21° NE 15:50:00 10° N visible
22 Jan ? 17:18:36 10° SSE 17:22:55 88° ENE 17:27:20 10° NNW visible
23 Jan ? 16:08:32 10° ESE 16:12:15 29° ENE 16:16:04 10° N visible
23 Jan ? 17:44:29 10° S 17:48:45 60° WSW 17:53:07 10° NNW visible
24 Jan ? 15:00:19 10° ENE 15:02:10 13° NE 15:04:02 10° NNE visible
24 Jan ? 16:33:48 10° SE 16:37:53 42° ENE 16:42:03 10° N visible
24 Jan ? 18:10:38 10° SSW 18:14:40 38° W 18:18:49 10° NNW visible
25 Jan ? 15:24:48 10° E 15:27:35 17° NE 15:30:25 10° N visible
25 Jan ? 16:59:17 10° SSE 17:03:34 65° ENE 17:07:58 10° NNW visible
25 Jan ? 18:37:05 10° SSW 18:40:41 25° W 18:44:21 10° NW visible
